TRA6902 LBWN-EHAM

Flight info

Callsign TRA6902
Flight time N/A
Altitude 38000
Route BALIK DCT RONBU DCT TEGRI DCT BEGLA DCT DITIS DCT VARIK DCT KATCE DCT NORKU
Aircraft B738/M-SDE2E3FGHIRWXY/LB1

Departure

Time 2026-05-09 04:41
Airport Varna Airport (LBWN)

Arrival

Time N/A
Airport Amsterdam Airport Schiphol (EHAM)
Time Latitude Longitude Altitude Speed Heading
2026-05-09 04:19 43.23515 27.82495 210 ft 0 kts
2026-05-09 04:38 43.23548 27.82500 221 ft 12 kts
2026-05-09 04:38 43.23583 27.82407 221 ft 13 kts 276°
2026-05-09 04:38 43.23590 27.82289 221 ft 12 kts 261°
2026-05-09 04:38 43.23504 27.82238 221 ft 18 kts 214°
2026-05-09 04:39 43.23487 27.82082 221 ft 17 kts 276°
2026-05-09 04:39 43.23504 27.81885 221 ft 27 kts 277°
2026-05-09 04:39 43.23518 27.81731 221 ft 28 kts 277°
2026-05-09 04:39 43.23541 27.81476 221 ft 26 kts 277°
2026-05-09 04:40 43.23562 27.81228 221 ft 24 kts 276°
2026-05-09 04:40 43.23572 27.81007 221 ft 19 kts 259°
2026-05-09 04:40 43.23471 27.80929 221 ft 22 kts 165°
2026-05-09 04:40 43.23352 27.81039 219 ft 22 kts 128°
2026-05-09 04:41 43.23298 27.81373 219 ft 72 kts 97°
2026-05-09 04:41 43.23204 27.82419 224 ft 147 kts 97°
2026-05-09 04:41 43.23049 27.83987 662 ft 179 kts 99°
2026-05-09 04:41 43.22861 27.85685 1695 ft 176 kts 98°
2026-05-09 04:42 43.22801 27.87409 2496 ft 194 kts 78°
2026-05-09 04:42 43.23574 27.89030 2793 ft 221 kts 34°
2026-05-09 04:42 43.25101 27.89569 3083 ft 240 kts 353°
2026-05-09 04:42 43.26735 27.88940 3581 ft 249 kts 340°
2026-05-09 04:43 43.28438 27.88106 3938 ft 269 kts 340°
2026-05-09 04:43 43.30242 27.87251 4645 ft 277 kts 341°
2026-05-09 04:43 43.32082 27.86425 5518 ft 281 kts 341°
2026-05-09 04:43 43.33950 27.85621 5900 ft 282 kts 342°
2026-05-09 04:44 43.35835 27.84827 6003 ft 284 kts 342°
2026-05-09 04:44 43.37722 27.84038 6017 ft 284 kts 342°
2026-05-09 04:44 43.39564 27.83074 6009 ft 284 kts 326°
2026-05-09 04:44 43.40999 27.81234 6212 ft 284 kts 306°
2026-05-09 04:45 43.42157 27.79070 7007 ft 284 kts 304°
2026-05-09 04:45 43.43302 27.76865 7927 ft 284 kts 303°
2026-05-09 04:45 43.44452 27.74642 8744 ft 287 kts 303°
2026-05-09 04:45 43.45615 27.72399 9577 ft 289 kts 303°
2026-05-09 04:46 43.46795 27.70130 10324 ft 294 kts 303°
2026-05-09 04:46 43.48030 27.67756 10585 ft 317 kts 303°
2026-05-09 04:46 43.49364 27.65196 10780 ft 341 kts 304°
2026-05-09 04:46 43.50793 27.62459 10957 ft 363 kts 304°
2026-05-09 04:47 43.52313 27.59549 11208 ft 384 kts 304°
2026-05-09 04:47 43.53902 27.56512 11620 ft 395 kts 304°
2026-05-09 04:47 43.55517 27.53423 12257 ft 399 kts 304°
2026-05-09 04:47 43.57143 27.50312 12947 ft 401 kts 304°
2026-05-09 04:48 43.58781 27.47171 13606 ft 405 kts 304°
2026-05-09 04:48 43.60430 27.44006 14187 ft 408 kts 304°
2026-05-09 04:48 43.62090 27.40814 14763 ft 411 kts 304°
2026-05-09 04:48 43.63759 27.37602 15356 ft 413 kts 304°
2026-05-09 04:49 43.65438 27.34368 15920 ft 416 kts 304°
2026-05-09 04:49 43.67127 27.31110 16495 ft 419 kts 304°
2026-05-09 04:49 43.68807 27.27810 17048 ft 421 kts 303°
2026-05-09 04:49 43.70435 27.24424 17589 ft 424 kts 302°
2026-05-09 04:50 43.72041 27.20989 18128 ft 427 kts 301°
2026-05-09 04:50 43.73652 27.17522 18585 ft 430 kts 301°
2026-05-09 04:50 43.75276 27.14031 19035 ft 433 kts 301°
2026-05-09 04:50 43.76917 27.10517 19493 ft 436 kts 301°
2026-05-09 04:51 43.78570 27.06988 19928 ft 439 kts 301°
2026-05-09 04:51 43.80236 27.03436 20382 ft 441 kts 301°
2026-05-09 04:51 43.81911 26.99866 20826 ft 444 kts 301°
2026-05-09 04:51 43.83598 26.96270 21245 ft 446 kts 301°
2026-05-09 04:52 43.85292 26.92655 21664 ft 449 kts 301°
2026-05-09 04:52 43.86996 26.89011 22056 ft 452 kts 301°
2026-05-09 04:52 43.88707 26.85349 22443 ft 454 kts 301°
2026-05-09 04:52 43.90429 26.81659 22825 ft 457 kts 301°
2026-05-09 04:53 43.92158 26.77949 23177 ft 460 kts 301°
2026-05-09 04:53 43.93894 26.74217 23547 ft 462 kts 301°
2026-05-09 04:53 43.95633 26.70476 23942 ft 458 kts 301°
2026-05-09 04:53 43.97348 26.66785 24542 ft 453 kts 301°
2026-05-09 04:54 43.99055 26.63103 24877 ft 455 kts 301°
2026-05-09 04:54 44.00771 26.59393 25129 ft 458 kts 301°
2026-05-09 04:54 44.02475 26.55706 25400 ft 460 kts 301°
2026-05-09 04:54 44.04229 26.51909 25718 ft 461 kts 301°
2026-05-09 04:55 44.05960 26.48147 26039 ft 462 kts 301°
2026-05-09 04:55 44.07673 26.44368 26357 ft 463 kts 300°
2026-05-09 04:55 44.09354 26.40624 26750 ft 461 kts 300°
2026-05-09 04:55 44.11043 26.36845 27242 ft 458 kts 300°
2026-05-09 04:56 44.12716 26.33095 27771 ft 454 kts 300°
2026-05-09 04:56 44.14376 26.29373 28258 ft 451 kts 300°
2026-05-09 04:56 44.16027 26.25671 28700 ft 449 kts 300°
2026-05-09 04:56 44.17673 26.21980 29162 ft 448 kts 300°
2026-05-09 04:57 44.19311 26.18302 29658 ft 445 kts 300°
2026-05-09 04:57 44.20935 26.14652 30175 ft 441 kts 300°
2026-05-09 04:57 44.22545 26.11031 30642 ft 438 kts 300°
2026-05-09 04:57 44.24140 26.07439 31066 ft 435 kts 300°
2026-05-09 04:58 44.25728 26.03858 31432 ft 433 kts 300°
2026-05-09 04:58 44.27308 26.00290 31801 ft 431 kts 300°
2026-05-09 04:58 44.28880 25.96736 32184 ft 429 kts 300°
2026-05-09 04:58 44.30441 25.93202 32561 ft 427 kts 300°
2026-05-09 04:59 44.31992 25.89688 32947 ft 424 kts 300°
2026-05-09 04:59 44.33533 25.86191 33335 ft 421 kts 300°
2026-05-09 04:59 44.35065 25.82711 33683 ft 420 kts 300°
2026-05-09 04:59 44.36589 25.79244 34012 ft 418 kts 300°
2026-05-09 05:00 44.38106 25.75789 34299 ft 416 kts 300°
2026-05-09 05:00 44.39620 25.72337 34510 ft 417 kts 300°
2026-05-09 05:00 44.41137 25.68872 34671 ft 418 kts 300°
2026-05-09 05:00 44.42657 25.65395 34871 ft 419 kts 300°
2026-05-09 05:01 44.44176 25.61921 35110 ft 418 kts 299°
2026-05-09 05:01 44.45689 25.58454 35342 ft 418 kts 299°
2026-05-09 05:01 44.47204 25.54977 35513 ft 419 kts 299°
2026-05-09 05:01 44.48722 25.51491 35683 ft 419 kts 299°
2026-05-09 05:02 44.50237 25.48006 35902 ft 419 kts 299°
2026-05-09 05:02 44.51749 25.44527 36138 ft 418 kts 299°
2026-05-09 05:02 44.53261 25.41040 36300 ft 419 kts 299°
2026-05-09 05:02 44.54776 25.37543 36458 ft 420 kts 299°
2026-05-09 05:03 44.56292 25.34039 36643 ft 420 kts 299°
2026-05-09 05:03 44.57807 25.30535 36808 ft 421 kts 299°
2026-05-09 05:03 44.59323 25.27023 36977 ft 421 kts 299°
2026-05-09 05:03 44.60837 25.23511 37127 ft 422 kts 299°
2026-05-09 05:04 44.62357 25.19981 37246 ft 423 kts 299°
2026-05-09 05:04 44.63878 25.16445 37397 ft 423 kts 299°
2026-05-09 05:04 44.65398 25.12908 37608 ft 423 kts 299°
2026-05-09 05:04 44.66914 25.09374 37762 ft 423 kts 299°
2026-05-09 05:05 44.68431 25.05833 37884 ft 423 kts 298°
2026-05-09 05:05 44.69930 25.02330 38007 ft 424 kts 298°
2026-05-09 05:05 44.71453 24.98766 38012 ft 426 kts 298°
2026-05-09 05:06 44.74501 24.91621 38014 ft 425 kts 298°
2026-05-09 05:06 44.77532 24.84501 38019 ft 423 kts 298°
2026-05-09 05:07 44.80550 24.77392 38021 ft 422 kts 298°
2026-05-09 05:07 44.83556 24.70292 38026 ft 422 kts 298°
2026-05-09 05:08 44.86558 24.63184 38033 ft 423 kts 298°
2026-05-09 05:08 44.89567 24.56039 38008 ft 424 kts 298°
2026-05-09 05:09 44.92066 24.50094 38017 ft 424 kts 298°
2026-05-09 05:09 44.95070 24.42933 38021 ft 424 kts 298°
2026-05-09 05:10 44.98073 24.35751 38021 ft 425 kts 298°
2026-05-09 05:10 45.01079 24.28547 38025 ft 426 kts 298°
2026-05-09 05:11 45.04086 24.21322 38025 ft 427 kts 298°
2026-05-09 05:11 45.07091 24.14080 38034 ft 428 kts 298°
2026-05-09 05:12 45.10102 24.06807 38030 ft 429 kts 298°
2026-05-09 05:12 45.13116 23.99509 38025 ft 430 kts 297°
2026-05-09 05:13 45.16130 23.92192 38035 ft 430 kts 297°
2026-05-09 05:13 45.19144 23.84854 38036 ft 431 kts 297°
2026-05-09 05:14 45.22159 23.77497 38040 ft 432 kts 297°
2026-05-09 05:14 45.25169 23.70129 38045 ft 431 kts 297°
2026-05-09 05:15 45.28173 23.62758 38037 ft 432 kts 297°
2026-05-09 05:15 45.31174 23.55376 38025 ft 431 kts 297°
2026-05-09 05:16 45.34166 23.47997 38050 ft 431 kts 297°
2026-05-09 05:16 45.37154 23.40608 38046 ft 431 kts 297°
2026-05-09 05:17 45.40135 23.33216 38043 ft 431 kts 297°
2026-05-09 05:17 45.43109 23.25822 38051 ft 429 kts 297°
2026-05-09 05:18 45.46050 23.18491 38059 ft 429 kts 297°
2026-05-09 05:18 45.49005 23.11103 38054 ft 429 kts 297°
2026-05-09 05:19 45.51958 23.03703 38059 ft 430 kts 297°
2026-05-09 05:19 45.54909 22.96287 38058 ft 430 kts 297°
2026-05-09 05:20 45.57861 22.88849 38055 ft 431 kts 296°
2026-05-09 05:20 45.60809 22.81400 38057 ft 431 kts 296°
2026-05-09 05:21 45.63753 22.73944 38049 ft 431 kts 296°
2026-05-09 05:21 45.66693 22.66475 38058 ft 431 kts 296°
2026-05-09 05:22 45.69629 22.58997 38060 ft 431 kts 296°
2026-05-09 05:22 45.72561 22.51509 38046 ft 431 kts 296°
2026-05-09 05:23 45.75486 22.44019 38038 ft 431 kts 296°
2026-05-09 05:23 45.78407 22.36519 38047 ft 431 kts 296°
2026-05-09 05:24 45.81320 22.29018 38042 ft 431 kts 296°
2026-05-09 05:24 45.84229 22.21507 38040 ft 431 kts 296°
2026-05-09 05:25 45.87111 22.14046 38040 ft 430 kts 296°
2026-05-09 05:25 45.91455 22.02760 38038 ft 431 kts 296°
2026-05-09 05:26 45.94345 21.95225 38040 ft 431 kts 296°
2026-05-09 05:26 45.97229 21.87688 38038 ft 431 kts 296°
2026-05-09 05:27 46.00110 21.80135 38040 ft 431 kts 296°
2026-05-09 05:27 46.02989 21.72568 38039 ft 431 kts 295°
2026-05-09 05:28 46.05863 21.64993 38040 ft 431 kts 295°
2026-05-09 05:28 46.08732 21.57411 38044 ft 431 kts 295°
2026-05-09 05:29 46.11597 21.49815 38046 ft 431 kts 295°
2026-05-09 05:29 46.14458 21.42211 38048 ft 432 kts 295°
2026-05-09 05:30 46.17316 21.34592 38048 ft 432 kts 295°
2026-05-09 05:30 46.20171 21.26960 38050 ft 432 kts 295°
2026-05-09 05:31 46.23023 21.19316 38051 ft 432 kts 295°
2026-05-09 05:31 46.25872 21.11659 38044 ft 433 kts 295°
2026-05-09 05:32 46.28891 21.04115 38046 ft 434 kts 298°
2026-05-09 05:32 46.32063 20.96678 38041 ft 435 kts 298°
2026-05-09 05:33 46.35235 20.89225 38040 ft 435 kts 298°
2026-05-09 05:33 46.38382 20.81746 38045 ft 435 kts 298°
2026-05-09 05:34 46.41515 20.74248 38046 ft 435 kts 298°
2026-05-09 05:34 46.44643 20.66732 38046 ft 435 kts 298°
2026-05-09 05:35 46.47766 20.59204 38052 ft 435 kts 298°
2026-05-09 05:35 46.50885 20.51671 38040 ft 436 kts 298°
2026-05-09 05:36 46.54007 20.44107 38058 ft 437 kts 298°
2026-05-09 05:36 46.57133 20.36513 38063 ft 439 kts 298°
2026-05-09 05:37 46.60247 20.28928 38063 ft 441 kts 298°
2026-05-09 05:37 46.63388 20.21256 38067 ft 442 kts 298°
2026-05-09 05:38 46.66533 20.13552 38068 ft 443 kts 298°
2026-05-09 05:38 46.69681 20.05822 38072 ft 444 kts 298°
2026-05-09 05:39 46.72822 19.98086 38073 ft 444 kts 298°
2026-05-09 05:39 46.75956 19.90345 38075 ft 443 kts 298°
2026-05-09 05:40 46.79080 19.82606 38075 ft 442 kts 298°
2026-05-09 05:40 46.82195 19.74869 38076 ft 442 kts 298°
2026-05-09 05:41 46.85296 19.67143 38078 ft 441 kts 298°
2026-05-09 05:41 46.88387 19.59421 38078 ft 440 kts 298°
2026-05-09 05:42 46.91470 19.51696 38073 ft 439 kts 298°
2026-05-09 05:42 46.94543 19.43975 38078 ft 439 kts 298°
2026-05-09 05:43 46.97609 19.36251 38082 ft 439 kts 298°
2026-05-09 05:43 47.00666 19.28525 38085 ft 439 kts 298°
2026-05-09 05:44 47.03717 19.20794 38082 ft 438 kts 298°
2026-05-09 05:44 47.06764 19.13050 38081 ft 438 kts 297°
2026-05-09 05:45 47.09806 19.05298 38087 ft 438 kts 297°
2026-05-09 05:45 47.12840 18.97544 38084 ft 438 kts 297°
2026-05-09 05:46 47.15850 18.89829 38080 ft 438 kts 297°
2026-05-09 05:46 47.18874 18.82057 38085 ft 438 kts 297°
2026-05-09 05:47 47.21890 18.74282 38083 ft 438 kts 297°
2026-05-09 05:47 47.24903 18.66492 38081 ft 438 kts 297°
2026-05-09 05:48 47.27909 18.58698 38083 ft 438 kts 297°
2026-05-09 05:48 47.30912 18.50889 38086 ft 438 kts 297°
2026-05-09 05:49 47.33910 18.43071 38094 ft 438 kts 297°
2026-05-09 05:49 47.36903 18.35241 38094 ft 438 kts 297°
2026-05-09 05:50 47.39890 18.27405 38098 ft 438 kts 297°
2026-05-09 05:50 47.42875 18.19554 38088 ft 439 kts 297°
2026-05-09 05:51 47.45854 18.11694 38109 ft 439 kts 297°
2026-05-09 05:51 47.48830 18.03816 38099 ft 439 kts 297°
2026-05-09 05:52 47.51800 17.95934 38106 ft 439 kts 297°
2026-05-09 05:52 47.54767 17.88036 38102 ft 439 kts 297°
2026-05-09 05:53 47.57725 17.80138 38104 ft 438 kts 297°
2026-05-09 05:53 47.60676 17.72236 38106 ft 438 kts 297°
2026-05-09 05:54 47.63619 17.64332 38104 ft 438 kts 297°
2026-05-09 05:54 47.66554 17.56425 38104 ft 437 kts 297°
2026-05-09 05:55 47.68986 17.49857 38103 ft 437 kts 297°
2026-05-09 05:55 47.71903 17.41955 38107 ft 436 kts 297°
2026-05-09 05:56 47.74809 17.34060 38112 ft 435 kts 296°
2026-05-09 05:56 47.77708 17.26160 38111 ft 435 kts 296°
2026-05-09 05:57 47.80596 17.18268 38114 ft 434 kts 296°
2026-05-09 05:57 47.83585 17.10458 38106 ft 436 kts 303°
2026-05-09 05:58 47.87392 17.03429 38114 ft 437 kts 307°
2026-05-09 05:58 47.91292 16.96489 38121 ft 437 kts 307°
2026-05-09 05:59 47.95146 16.89561 38136 ft 437 kts 307°
2026-05-09 05:59 47.99003 16.82556 38149 ft 437 kts 307°
2026-05-09 06:00 48.02852 16.75526 38155 ft 437 kts 307°
2026-05-09 06:00 48.06699 16.68478 38157 ft 438 kts 307°
2026-05-09 06:01 48.10547 16.61411 38161 ft 438 kts 307°
2026-05-09 06:01 48.14397 16.54323 38161 ft 439 kts 307°
2026-05-09 06:02 48.18248 16.47217 38156 ft 440 kts 306°
2026-05-09 06:02 48.22097 16.40093 38157 ft 440 kts 306°
2026-05-09 06:03 48.25951 16.32941 38152 ft 441 kts 306°
2026-05-09 06:03 48.29804 16.25774 38156 ft 441 kts 306°
2026-05-09 06:04 48.33656 16.18587 38154 ft 442 kts 306°
2026-05-09 06:04 48.37507 16.11384 38154 ft 442 kts 306°
2026-05-09 06:05 48.41329 16.04217 38159 ft 442 kts 306°
2026-05-09 06:05 48.45169 15.96994 38145 ft 442 kts 306°
2026-05-09 06:06 48.49005 15.89762 38155 ft 441 kts 306°
2026-05-09 06:06 48.52835 15.82520 38156 ft 441 kts 306°
2026-05-09 06:07 48.56655 15.75279 38164 ft 441 kts 306°
2026-05-09 06:07 48.60470 15.68027 38150 ft 441 kts 306°
2026-05-09 06:08 48.64285 15.60755 38164 ft 441 kts 306°
2026-05-09 06:08 48.68092 15.53479 38161 ft 441 kts 306°
2026-05-09 06:09 48.71896 15.46187 38159 ft 441 kts 306°
2026-05-09 06:09 48.75700 15.38878 38159 ft 442 kts 306°
2026-05-09 06:10 48.79501 15.31551 38162 ft 442 kts 306°
2026-05-09 06:10 48.83301 15.24209 38159 ft 443 kts 306°
2026-05-09 06:11 48.87075 15.16898 38159 ft 443 kts 306°
2026-05-09 06:11 48.90880 15.09530 38162 ft 444 kts 307°
2026-05-09 06:12 48.94769 15.02236 38162 ft 444 kts 307°
2026-05-09 06:12 48.98684 14.94949 38157 ft 445 kts 307°
2026-05-09 06:13 49.02589 14.87637 38159 ft 445 kts 307°
2026-05-09 06:13 49.06484 14.80304 38156 ft 445 kts 307°
2026-05-09 06:14 49.10373 14.72953 38157 ft 445 kts 307°
2026-05-09 06:14 49.14256 14.65591 38159 ft 445 kts 307°
2026-05-09 06:15 49.18132 14.58224 38160 ft 445 kts 307°
2026-05-09 06:15 49.22005 14.50842 38160 ft 445 kts 307°
2026-05-09 06:16 49.25870 14.43455 38159 ft 445 kts 307°
2026-05-09 06:16 49.29731 14.36055 38158 ft 445 kts 307°
2026-05-09 06:17 49.33588 14.28641 38160 ft 445 kts 307°
2026-05-09 06:17 49.37435 14.21226 38165 ft 444 kts 307°
2026-05-09 06:18 49.41279 14.13797 38162 ft 444 kts 307°
2026-05-09 06:18 49.45120 14.06354 38162 ft 444 kts 307°
2026-05-09 06:19 49.48954 13.98902 38160 ft 444 kts 307°
2026-05-09 06:19 49.52784 13.91435 38160 ft 445 kts 307°
2026-05-09 06:20 49.56612 13.83953 38165 ft 445 kts 307°
2026-05-09 06:20 49.60438 13.76454 38157 ft 445 kts 307°
2026-05-09 06:21 49.64263 13.68934 38173 ft 446 kts 307°
2026-05-09 06:21 49.68085 13.61400 38169 ft 446 kts 306°
2026-05-09 06:22 49.71906 13.53845 38177 ft 446 kts 306°
2026-05-09 06:22 49.75726 13.46270 38177 ft 447 kts 306°
2026-05-09 06:23 49.79543 13.38682 38182 ft 447 kts 306°
2026-05-09 06:23 49.83356 13.31079 38176 ft 447 kts 306°
2026-05-09 06:24 49.87166 13.23458 38175 ft 447 kts 306°
2026-05-09 06:24 49.90971 13.15826 38170 ft 447 kts 306°
2026-05-09 06:25 49.94772 13.08182 38155 ft 447 kts 306°
2026-05-09 06:25 49.98570 13.00519 38161 ft 447 kts 306°
2026-05-09 06:26 50.02363 12.92845 38156 ft 447 kts 306°
2026-05-09 06:26 50.06149 12.85163 38158 ft 447 kts 306°
2026-05-09 06:27 50.09906 12.77516 38157 ft 447 kts 306°
2026-05-09 06:27 50.13705 12.69763 38157 ft 447 kts 306°
2026-05-09 06:28 50.17448 12.62101 38157 ft 447 kts 306°
2026-05-09 06:28 50.21212 12.54372 38153 ft 447 kts 306°
2026-05-09 06:29 50.24967 12.46640 38162 ft 447 kts 306°
2026-05-09 06:29 50.28717 12.38899 38154 ft 447 kts 306°
2026-05-09 06:30 50.32482 12.31173 38155 ft 446 kts 306°
2026-05-09 06:30 50.36261 12.23469 38161 ft 446 kts 306°
2026-05-09 06:31 50.40035 12.15750 38154 ft 446 kts 306°
2026-05-09 06:31 50.43799 12.08016 38159 ft 446 kts 306°
2026-05-09 06:32 50.47554 12.00273 38155 ft 446 kts 306°
2026-05-09 06:33 50.53172 11.88645 38162 ft 445 kts 306°
2026-05-09 06:33 50.56911 11.80877 38163 ft 445 kts 306°
2026-05-09 06:34 50.62506 11.69210 38162 ft 445 kts 306°
2026-05-09 06:34 50.66227 11.61421 38164 ft 445 kts 306°
2026-05-09 06:35 50.69944 11.53619 38166 ft 445 kts 306°
2026-05-09 06:35 50.73653 11.45809 38171 ft 445 kts 306°
2026-05-09 06:36 50.77357 11.37987 38173 ft 444 kts 306°
2026-05-09 06:36 50.81050 11.30165 38176 ft 444 kts 306°
2026-05-09 06:37 50.84739 11.22329 38182 ft 444 kts 306°
2026-05-09 06:37 50.88422 11.14481 38180 ft 444 kts 306°
2026-05-09 06:38 50.92094 11.06632 38187 ft 443 kts 306°
2026-05-09 06:38 50.95761 10.98771 38181 ft 443 kts 306°
2026-05-09 06:39 50.99420 10.90902 38187 ft 443 kts 306°
2026-05-09 06:39 51.02458 10.84352 38183 ft 443 kts 306°
2026-05-09 06:40 51.06101 10.76475 38183 ft 442 kts 306°
2026-05-09 06:40 51.09735 10.68593 38183 ft 442 kts 306°
2026-05-09 06:41 51.13362 10.60703 38182 ft 441 kts 306°
2026-05-09 06:41 51.16981 10.52807 38177 ft 441 kts 306°
2026-05-09 06:42 51.20590 10.44908 38176 ft 441 kts 306°
2026-05-09 06:42 51.24190 10.37006 38178 ft 440 kts 305°
2026-05-09 06:43 51.27208 10.28523 38189 ft 440 kts 296°
2026-05-09 06:43 51.29848 10.19709 38180 ft 440 kts 295°
2026-05-09 06:44 51.32484 10.10871 38176 ft 441 kts 296°
2026-05-09 06:44 51.35129 10.02080 38176 ft 442 kts 296°
2026-05-09 06:45 51.37802 9.93220 38169 ft 443 kts 296°
2026-05-09 06:45 51.40495 9.84277 38178 ft 443 kts 296°